SCP
0 0 -0 0 0 0 0 0 0 0 0 0 0 0 0 0 0 0 0 0 0 0 0 0 0 0 0 0 0 0 0 0 0 0 0 0 0 0 0 0 0 0 0 0
0 0 -0 0 0 0 0 0 0 0 0 0 0 0 0 0 0 0 0 0 0 0 0 0 0 0 0 0 0 0 0 0 0 0 0 0 0 0 0 0 0 0 0 0
0 0 0 0 0 0 0 0 0 0 0 0 0 0 0 0 0 0 0 0 0 0 0 0 0 0 0 0 0 0 0 0 0 0 0 0 0 0 0 0 0 0 0 0
0 0 0 0 0 0 0 0 0 0 0 0 0 0 0 0 0 0 0 0 0 0 0 0 0 0 0 0 0 0 0 0 0 0 0 0 0 0 0 0 0 0 0 0
0 0 0 0 0 0 0 0 0 0 0 0 0 0 0 0 0 0 0 0 0 0 0 0 0 0 0 0 0 0 0 0 0 0 0 0 0 0 0 0 0 0 0 0
0 0 0 0 0 0 0 0 0 0 0 0 0 0 0 0 0 0 0 0 0 0 0 0 0 0 0 0 0 0 0 0 0 0 0 0 0 0 0 0 0 0 0 0
0 0 0 0 0 0 0 0 0 0 0 0 0 0 0 0 0 0 0 0 0 0 0 0 0 0 0 0 0 0 0 0 0 0 0 0 0 0 0 0 0 0 0 0
0 0 0 0 0 0 0 0 0 0 0 0 -0 0 0 0 0 0 0 0 0 0 0 0 0 0 0 0 0 0 0 0 0 0 0 0 0 0 0 0 0 0 0 0
0 0 0 0 0 0 0 0 0 0 0 -0 0 0 0 0 0 0 0 0 0 0 0 0 0 0 0 0 0 0 0 0 0 0 0 0 0 0 0 0 0 0 0 0
0 0 0 0 0 0 0 0 0 0 0 -0 0 0 0 0 0 -0 -0 -0 -0 0 0 0 0 0 0 0 0 0 0 0 0 0 0 0 0 0 0 0 0 0 0 0
0 0 0 0 0 0 0 0 0 0 0 0 0 0 0 0 0 -0 -0 -0 -0 0 0 0 0 0 0 0 0 0 0 0 0 0 0 0 0 0 0 0 0 0 0 0
0 0 0 0 0 0 0 0 0 0 0 0 0 0 0 0 -0 -0 -0 0 0 0 0 0 0 0 0 0 0 0 0 0 0 0 0 0 0 0 0 0 0 0 0 0
0 0 0 0 0 0 0 0 0 0 0 0 0 0 0 0 0 0 0 0 0 0 0 0 0 0 0 0 0 0 0 0 0 0 0 0 0 0 0 0 0 0 0 0
0 0 0 0 0 0 0 0 0 0 0 0 0 0 -0 0 0 0 0 0 0 0 0 0 0 0 0 0 0 0 0 0 0 0 0 0 0 0 0 0 0 0 0 0
0 0 0 0 0 0 0 0 0 0 0 0 0 0 0 0 0 0 0 0 0 0 0 0 0 0 0 0 0 0 0 0 0 0 0 0 0 0 0 0 0 0 0 0
0 0 0 0 0 0 0 0 0 0 0 0 0 0 0 0 0 0 0 0 0 0 0 0 0 0 0 0 0 0 0 0 0 0 0 0 0 0 0 0 0 0 0 0
0 0 0 0 0 0 0 0 0 0 0 0 0 0 -0 0 0 0 0 0 0 0 0 0 0 0 0 0 0 0 0 0 0 0 0 0 0 0 0 0 0 0 0 0
0 0 0 0 0 0 0 0 0 0 0 0 0 0 0 0 0 0 0 0 0 0 0 0 0 0 0 0 0 0 0 0 0 0 0 0 0 0 0 0 0 0 0 0
0 0 0 0 0 0 0 0 0 0 0 0 0 0 0 0 0 0 0 0 0 0 0 0 0 0 0 0 0 0 0 0 0 0 0 0 0 0 0 0 0 0 0 0
0 0 0 0 0 0 0 -0 -0 0 0 0 0 0 0 0 0 0 0 0 0 0 0 0 0 -0 -0 -0 0 0 0 0 0 0 0 0 0 0 0 0 0 0 0 0
0 0 0 0 0 0 0 -0 -0 0 0 0 0 0 0 0 0 0 0 0 0 0 0 0 0 0 -0 -0 0 0 0 0 0 0 0 0 0 0 0 0 0 0 0 0
0 0 0 0 0 0 0 -0 -0 0 0 0 0 0 0 0 0 0 0 0 0 0 0 0 0 0 0 -0 0 0 0 0 0 0 0 0 0 0 0 0 0 0 0 0
0 0 0 0 0 0 0 0 -0 -0 0 0 0 0 0 0 0 0 0 0 0 0 0 0 0 0 0 -0 0 0 0 0 0 0 0 0 0 0 0 0 0 0 0 0
0 0 0 0 0 0 0 0 0 0 0 0 0 0 0 0 0 0 0 0 0 0 0 0 0 0 0 -0 0 0 0 0 0 0 0 0 0 0 0 0 0 0 0 0
0 0 0 0 0 0 0 0 0 0 0 0 0 0 0 0 0 0 0 0 0 0 0 0 0 -0 -0 -0 0 0 0 0 0 0 0 0 0 0 0 0 0 0 0 0
0 0 0 0 0 0 0 0 0 0 0 0 0 0 0 0 0 0 0 0 0 0 0 0 0 -0 -0 -0 0 0 0 0 0 0 0 0 0 0 0 0 0 0 0 0
Wind_Speed
4 5 2 1 1 2 1 1 1 3 2 0 3 5 7 4 3 5 4 4 4 4 3 2 3 4 3 3 2 1 2 1 2 1 1 1 1 1 1 1 2 3 3 3
5 3 3 2 1 2 1 1 2 3 3 1 2 6 6 4 5 5 6 5 5 3 2 2 3 3 3 3 3 2 2 1 1 1 0 0 0 1 1 1 2 2 2 3
2 3 3 2 3 3 2 1 1 2 4 3 2 6 4 3 2 2 3 4 4 5 5 4 4 3 3 3 2 2 2 1 1 1 1 2 2 2 2 2 2 2 2 2
1 3 2 2 1 2 1 1 0 1 2 3 1 3 6 2 2 2 2 3 4 4 4 4 4 4 4 3 2 2 2 2 1 1 2 1 1 0 1 1 1 2 2 2
2 2 2 1 1 0 2 2 1 0 1 2 1 2 8 2 2 4 3 4 4 4 5 5 4 5 4 3 3 2 2 2 1 1 1 1 0 1 1 1 1 2 2 2
1 1 0 1 2 1 1 3 3 4 4 2 3 3 6 3 5 3 3 3 3 3 3 3 3 3 2 2 2 2 2 2 2 2 2 2 2 2 1 1 1 2 2 2
4 3 2 1 2 4 3 4 4 5 4 5 2 2 8 5 4 4 4 4 3 3 3 3 3 3 3 3 3 3 3 3 2 2 2 2 3 2 2 2 1 1 1 2
2 4 3 2 0 1 1 3 5 3 3 5 2 5 7 4 2 0 2 3 3 2 3 3 4 4 4 4 4 3 4 3 3 3 3 2 2 2 2 2 1 2 2 2
1 3 3 2 1 1 1 1 3 4 1 3 5 6 6 1 1 1 1 2 2 3 3 4 3 3 4 4 4 4 4 4 4 4 3 3 3 3 2 2 1 1 2 2
2 2 3 3 2 1 1 2 3 3 1 3 5 5 4 3 2 1 2 3 3 3 3 3 3 3 3 4 3 3 4 5 4 4 4 3 3 3 3 2 2 2 2 2
1 1 3 2 1 2 1 1 2 2 2 3 3 7 5 5 4 4 4 4 4 4 4 4 3 3 3 2 3 3 3 3 3 4 4 3 3 3 3 2 3 2 2 2
1 2 3 5 4 2 3 3 4 2 3 3 3 9 4 3 3 3 3 3 3 4 3 3 3 3 2 3 3 3 3 3 4 4 4 4 3 3 3 3 3 2 2 2
1 2 2 5 3 1 2 2 3 3 2 3 4 9 3 1 1 1 2 3 3 3 3 3 3 3 4 4 4 4 4 4 3 3 3 4 3 3 4 4 3 3 2 2
3 3 5 6 5 3 4 5 4 4 4 5 9 10 7 4 4 4 4 4 4 4 4 3 3 4 4 4 4 4 4 4 3 3 3 4 5 4 4 4 3 3 3 3
3 3 5 8 8 6 8 10 8 10 9 9 9 9 10 7 6 6 5 4 4 4 4 4 4 4 4 4 4 4 4 4 3 3 4 5 5 4 3 3 3 3 3 3
2 2 3 6 6 6 9 12 11 12 10 11 10 13 9 6 4 4 5 4 5 5 5 5 4 4 4 5 5 4 4 4 3 4 5 4 4 4 4 4 3 3 3 3
2 2 1 5 5 6 9 10 10 7 8 9 12 11 5 3 5 6 6 5 6 6 5 5 5 5 5 5 5 5 5 3 3 4 4 4 4 4 4 4 3 4 4 3
5 3 2 3 4 6 8 2 5 6 7 8 7 6 5 6 5 5 5 5 6 6 5 5 4 4 4 4 4 4 3 3 4 4 4 4 4 4 4 4 4 4 3 3
5 5 3 2 4 9 9 4 3 4 6 6 8 7 5 3 2 4 5 5 6 6 5 5 5 4 4 4 4 3 3 3 3 4 5 4 4 4 4 5 5 4 3 4
2 3 3 3 4 8 7 3 1 1 5 3 4 5 3 1 2 6 4 3 4 4 4 4 3 3 3 4 2 2 3 3 5 5 5 4 4 4 5 6 5 4 4 4
3 3 5 6 7 10 8 3 1 2 6 3 3 4 4 5 6 5 3 3 4 4 4 4 3 3 4 3 2 3 4 5 6 4 4 4 4 4 5 4 4 3 3 3
8 7 7 6 7 12 4 3 5 7 4 3 3 4 4 5 5 4 4 5 4 4 4 3 3 4 4 3 3 4 6 6 4 3 3 4 4 4 3 4 3 3 3 3
8 10 7 10 11 6 3 6 5 3 4 5 4 4 4 5 5 5 5 5 5 5 5 4 4 4 4 4 4 5 6 4 3 3 4 4 4 3 3 4 4 3 3 3
5 4 4 6 10 8 7 6 6 5 6 6 5 5 5 6 6 6 6 5 5 5 5 4 3 4 5 4 4 5 5 3 3 4 4 3 3 3 3 3 3 3 4 4
7 4 4 8 9 8 6 6 6 5 5 5 6 5 6 6 7 6 6 6 5 5 4 4 4 5 6 5 5 4 4 3 4 4 4 4 3 4 4 4 4 5 5 5
7 8 8 11 9 7 8 6 6 6 7 7 7 6 6 6 7 7 6 6 5 5 4 4 5 5 6 5 5 4 4 4 4 4 4 3 3 3 3 3 4 7 7 8
Wind_Direction
24 55 29 292 225 197 197 127 308 279 288 285 239 261 270 259 217 212 212 206 205 212 212 165 144 132 123 124 129 125 89 53 60 39 38 35 360 31 34 21 21 21 21 12
34 12 286 286 14 56 70 65 347 326 348 340 274 279 271 245 223 211 200 201 202 203 189 167 149 145 146 149 156 148 117 75 63 62 32 154 318 353 357 2 11 14 21 11
99 281 312 40 31 52 26 128 262 302 341 1 342 307 288 281 254 227 204 192 190 188 186 179 170 172 164 170 178 170 144 124 77 55 57 41 35 13 5 1 355 355 7 9
26 318 6 46 20 56 317 287 253 310 30 307 57 293 290 272 300 262 216 197 196 190 178 173 171 180 187 194 185 180 160 138 103 81 91 93 87 273 279 290 308 339 1 360
335 342 19 19 306 8 234 283 313 344 96 341 321 205 286 313 270 255 232 213 205 193 182 178 179 187 189 188 185 186 172 146 146 140 146 150 232 258 282 304 335 342 348 352
288 304 296 258 301 290 296 30 30 44 64 320 246 177 282 256 237 245 228 213 204 197 191 186 180 170 180 182 185 190 184 188 188 178 176 183 216 236 275 311 323 326 329 333
347 334 333 11 12 3 53 73 32 4 5 261 263 197 254 263 251 215 201 202 201 181 179 184 189 192 199 202 209 206 200 208 203 191 191 202 215 214 221 250 264 283 303 309
9 311 315 355 127 253 296 129 147 194 240 284 312 238 256 286 305 182 161 169 170 179 190 200 209 210 208 208 210 211 210 219 211 204 213 211 209 208 226 238 241 252 266 277
146 277 306 324 310 166 135 152 169 137 204 276 279 283 297 270 18 65 118 144 191 215 216 216 219 217 218 217 215 212 215 222 221 216 211 210 208 208 222 233 234 251 267 286
165 274 294 310 1 8 139 144 94 122 175 273 290 275 251 252 244 227 211 219 234 240 240 233 228 227 225 223 225 223 221 221 226 223 218 214 213 214 216 213 225 244 261 277
132 189 308 335 241 221 171 168 134 132 166 179 271 273 230 221 212 209 223 229 229 228 234 235 240 239 232 233 227 228 232 234 235 229 222 218 216 212 211 215 226 233 250 263
86 125 270 265 261 233 197 192 151 159 241 197 219 269 274 230 212 199 223 241 246 238 237 235 235 242 244 243 242 239 240 239 239 230 218 218 215 209 213 225 229 225 238 252
118 116 344 336 329 330 246 217 183 152 151 187 208 264 310 6 321 281 237 248 253 251 252 243 235 237 243 246 247 247 246 243 240 224 220 222 221 218 221 226 225 223 229 244
118 170 195 219 235 220 251 252 215 173 196 224 230 254 281 289 283 283 274 264 255 251 248 241 245 248 249 248 245 246 252 246 235 222 223 228 229 225 224 222 221 224 225 232
122 224 242 256 261 252 247 247 226 215 211 217 240 243 256 251 250 253 254 258 262 257 249 245 246 248 253 257 257 251 250 246 229 221 230 235 233 224 221 223 224 224 228 235
152 229 274 280 269 258 262 253 236 231 226 236 254 267 261 251 237 251 254 250 253 254 252 254 255 251 250 250 253 254 251 246 226 222 233 237 231 224 223 223 220 222 231 235
195 186 270 277 306 319 270 240 212 211 211 204 230 244 256 250 245 243 243 239 245 252 256 256 254 249 248 247 242 243 245 247 234 232 235 233 228 228 228 224 218 224 229 226
173 165 208 282 334 258 248 250 201 215 239 221 232 244 235 233 247 250 234 231 245 249 253 256 253 253 254 248 245 246 244 239 238 239 240 237 233 234 231 220 224 229 226 227
176 169 195 227 266 278 291 273 193 204 265 232 231 246 248 249 311 285 246 229 237 243 247 247 244 245 250 253 246 238 242 244 245 248 245 238 229 233 229 228 231 228 223 234
134 152 178 201 236 252 258 276 238 115 278 261 210 228 229 163 281 270 255 246 256 256 251 248 249 252 255 258 240 228 244 245 249 249 247 240 226 225 231 232 232 225 221 232
154 179 202 216 239 263 261 259 117 188 255 277 239 237 223 215 229 252 269 266 260 258 257 252 249 252 251 248 228 238 248 250 253 253 249 242 232 229 233 235 231 227 225 230
182 185 200 193 219 252 240 152 189 229 261 271 266 253 240 245 256 263 262 260 263 266 266 257 251 262 261 237 221 245 254 258 258 248 246 245 241 238 236 231 235 227 217 227
203 197 193 199 219 244 213 213 237 238 255 265 259 256 241 247 257 261 257 257 261 261 260 256 248 260 264 240 220 241 260 260 250 245 249 252 250 242 232 224 228 227 218 224
246 205 209 249 261 262 264 260 264 256 253 263 259 255 242 247 256 264 264 261 260 261 258 258 255 259 265 255 238 242 255 246 234 244 253 253 249 252 242 229 221 220 222 227
228 203 227 256 270 286 270 252 259 265 263 265 265 256 247 246 256 257 263 263 258 261 259 249 247 253 261 260 254 252 246 230 236 246 252 253 248 246 246 238 228 227 226 224
205 208 220 246 248 247 264 265 263 262 263 261 262 263 252 241 251 258 260 260 256 257 258 258 256 256 261 259 259 257 240 223 230 249 250 245 245 246 243 246 261 251 247 253